GFSSW_sfc_dewp_132.txt.gz
Dewpoint
54 54 55 55 56 55 55 54 53 53 54 54 55 56 56 56 55 50 46 48 48 52 53 41 36 28 32 33 32 29 26 25 26 26 26 26 28 38 41 37 37 52 56 59 61
54 54 54 54 54 55 55 55 55 54 51 54 54 55 55 55 50 48 51 55 55 54 50 40 31 26 29 31 30 25 25 26 26 27 26 28 36 37 36 36 35 40 45 53 62
54 54 54 54 54 55 55 54 53 54 54 54 54 54 55 53 46 44 54 58 56 55 49 40 35 26 23 27 28 25 23 25 27 27 26 30 36 39 37 34 37 39 54 64 65
54 54 54 54 54 54 53 53 53 53 53 54 53 53 54 49 37 38 61 60 58 52 48 37 32 24 20 22 25 24 24 23 24 25 26 29 36 37 38 35 40 42 61 56 60
55 54 55 55 54 54 54 53 53 53 53 52 53 52 50 44 42 45 54 51 55 51 46 32 26 23 15 19 21 22 24 23 23 22 24 32 36 38 38 40 37 41 45 57 59
54 54 54 54 54 54 54 54 53 53 52 52 52 53 48 40 42 43 44 44 51 49 43 32 27 23 17 14 19 21 21 22 22 21 24 31 35 37 38 41 39 37 43 52 63
52 52 53 53 53 54 54 54 53 53 51 50 51 49 46 40 43 44 44 43 44 47 37 34 30 24 20 15 15 21 19 20 20 21 29 38 35 37 41 40 39 40 39 46 56
50 51 50 50 50 52 53 54 53 52 51 51 50 48 43 43 44 44 44 44 44 42 43 35 32 27 24 23 18 12 18 17 18 19 27 34 23 36 39 40 39 39 42 42 46
47 49 50 48 48 49 51 52 51 51 51 50 46 45 39 45 43 43 43 42 39 42 43 38 30 25 26 21 16 14 12 16 17 18 34 36 28 38 40 41 39 39 41 42 43
48 48 49 49 48 50 50 50 49 49 46 45 44 42 42 37 40 42 45 44 39 41 39 35 24 23 22 17 13 13 13 14 15 19 33 36 37 39 40 40 40 41 41 41 43
48 48 48 49 49 49 48 44 36 35 43 38 35 37 33 34 37 37 44 43 39 41 33 33 26 21 17 21 16 17 13 12 14 17 36 37 38 38 39 39 38 40 40 42 43
48 47 48 49 49 49 46 39 37 35 36 40 39 38 38 36 36 38 41 37 38 36 31 32 30 26 22 20 17 15 15 14 16 34 32 35 36 38 39 39 40 41 43 43 43
50 50 49 49 49 46 41 39 42 44 38 35 35 37 37 38 37 38 39 37 35 33 30 29 30 28 20 18 15 13 13 15 15 35 37 37 37 38 39 42 41 40 42 43 44
49 50 50 50 44 41 37 37 39 43 32 27 31 36 36 37 35 39 39 38 34 32 32 28 26 26 20 17 14 11 14 15 20 33 33 40 31 35 36 36 36 37 39 42 44
50 50 50 49 45 41 39 39 40 42 18 16 38 46 40 35 28 29 39 37 31 30 26 23 28 22 18 17 14 13 15 16 18 27 30 35 33 33 36 34 34 35 37 41 43
50 50 49 47 44 44 43 42 37 31 16 18 33 30 32 36 32 30 39 39 37 27 26 23 29 21 18 18 14 15 15 15 23 22 22 23 31 25 30 35 32 37 40 40 43
50 50 49 47 43 43 41 37 30 19 18 19 28 29 32 36 31 28 34 37 35 27 22 22 23 26 18 16 17 14 12 11 16 23 21 25 25 26 30 30 31 32 38 39 43
48 49 47 44 46 47 41 32 23 18 18 19 26 33 34 37 30 26 34 33 33 24 22 19 20 22 21 14 13 11 11 14 17 20 14 25 23 24 26 26 26 32 35 39 41
47 44 44 48 48 47 40 29 24 20 21 23 29 31 33 31 32 26 36 31 32 25 25 24 25 27 21 16 10 9 10 15 14 25 20 20 23 24 24 22 25 28 32 34 37
44 42 43 48 50 46 36 30 30 31 29 32 30 35 31 33 32 29 35 36 29 24 25 25 24 22 21 17 11 9 11 16 28 20 21 25 30 24 35 23 26 28 31 45 52
40 38 45 45 48 42 33 35 32 34 36 35 36 34 35 34 32 32 32 34 26 23 24 23 23 19 16 17 10 8 9 26 30 28 26 26 28 37 38 37 26 35 41 50 50
42 35 45 46 39 37 34 37 40 38 39 36 38 36 36 36 33 34 33 36 27 25 23 25 29 25 16 16 14 8 8 28 26 28 35 33 32 41 40 37 37 40 48 48 49
40 39 46 45 33 34 38 38 39 38 39 39 38 39 39 34 35 36 36 37 29 25 25 24 23 23 18 21 26 11 15 17 30 37 35 32 34 45 44 41 38 43 44 44 47
43 37 37 38 41 37 36 36 36 37 41 43 41 41 37 35 37 39 39 39 35 27 47 34 31 27 21 21 27 18 15 21 29 31 35 34 39 41 46 45 40 39 41 42 43
40 35 38 34 36 37 38 37 35 36 39 42 40 38 39 37 36 39 41 41 39 41 35 33 34 35 36 35 33 27 19 19 25 32 32 38 39 43 48 47 45 39 40 41 41
39 39 41 39 37 37 38 36 36 37 39 39 39 39 39 38 39 38 40 40 33 31 33 39 36 38 36 37 33 35 37 38 41 40 39 41 44 46 50 49 46 44 40 39 39
43 44 42 38 35 37 37 38 38 40 40 41 41 40 39 40 42 41 43 42 42 41 37 39 38 34 34 37 34 32 36 40 38 42 41 39 45 48 47 47 49 47 45 38 39

GFSSW_sfc_dewp_138.txt.gz
Dewpoint
55 55 54 54 55 55 54 54 54 54 53 53 53 53 53 54 54 49 46 48 50 54 54 46 36 34 29 29 33 32 28 27 27 26 27 28 27 34 38 37 37 53 59 64 68
53 53 54 55 55 55 55 54 54 54 53 53 53 54 52 53 49 46 49 53 54 55 48 44 30 27 25 28 31 29 27 27 29 28 28 28 30 35 33 35 36 57 63 65 67
50 50 51 52 52 53 53 54 54 54 53 52 52 53 53 50 44 43 54 52 54 55 50 41 30 25 23 31 30 28 26 27 27 28 28 27 27 30 31 34 41 54 62 64 66
48 48 49 49 50 50 52 52 53 53 53 53 52 51 52 47 29 40 54 51 55 56 50 44 32 21 21 27 29 29 26 27 26 27 30 28 31 34 34 34 48 52 63 64 64
47 48 47 47 48 48 49 50 50 51 53 53 53 51 48 42 39 42 51 46 53 51 49 39 28 21 17 22 25 26 25 25 25 25 24 25 29 33 36 39 48 55 61 64 64
47 46 46 46 47 47 47 49 49 50 50 50 53 52 47 37 40 42 41 41 46 51 49 42 28 23 19 19 22 23 25 24 24 24 24 23 23 27 36 40 45 54 57 61 61
50 49 48 48 47 47 47 48 49 48 48 48 50 50 45 39 41 42 42 43 43 47 46 46 31 24 20 17 19 20 19 22 24 23 22 23 24 27 37 40 39 51 55 58 60
50 50 48 48 48 48 47 48 48 47 47 47 48 46 41 41 43 41 41 39 42 42 41 42 41 30 21 22 17 16 17 14 17 19 21 25 18 35 38 39 39 43 52 55 56
49 50 49 48 48 48 49 49 48 49 49 47 44 43 35 41 40 40 40 38 39 39 41 39 37 29 25 20 17 15 13 16 16 19 17 24 20 24 38 39 39 40 45 48 50
48 49 50 50 49 50 50 49 48 46 44 43 41 39 38 34 38 39 41 40 39 37 39 38 36 29 23 18 6 14 12 14 14 18 16 26 28 33 35 38 39 39 40 42 44
49 50 50 50 50 50 49 44 34 32 41 35 35 33 32 35 36 39 42 40 40 38 30 38 32 27 24 21 15 14 12 13 15 18 20 20 28 30 33 39 39 39 40 41 43
49 50 50 51 51 51 47 40 37 41 35 38 39 37 36 35 33 34 42 39 36 34 36 37 36 30 25 21 19 16 13 12 15 16 22 23 27 31 35 38 39 40 41 41 42
50 50 50 51 51 47 41 39 40 41 36 33 36 36 36 37 36 35 36 39 36 34 34 33 34 27 21 20 19 18 14 13 13 25 33 26 26 31 37 39 39 40 40 42 42
50 50 50 50 46 42 39 39 39 41 28 25 33 36 37 38 36 37 36 36 36 31 34 34 34 26 18 18 18 16 17 16 30 27 23 33 17 29 34 36 38 39 40 42 43
50 50 50 49 46 43 41 40 40 40 13 19 34 42 38 35 34 34 38 34 35 30 35 33 30 26 19 16 16 14 18 16 23 29 30 32 29 30 35 34 34 36 37 38 42
50 50 50 46 46 46 45 43 39 27 16 18 36 35 37 38 35 34 36 34 34 34 34 33 30 27 25 21 15 18 16 17 23 23 17 24 27 23 28 29 32 32 33 35 38
49 50 48 46 43 48 42 38 28 20 19 18 25 25 31 32 34 35 34 31 35 32 31 33 30 31 27 20 18 16 13 12 11 14 16 26 27 24 25 26 29 28 29 34 37
49 49 45 46 48 49 45 34 20 18 21 26 29 32 33 34 34 32 32 32 37 36 30 29 26 29 28 20 16 14 13 12 9 16 19 25 21 21 29 34 33 38 39 32 37
48 42 41 44 47 48 40 27 23 26 30 34 34 34 33 32 35 31 30 30 36 37 27 24 23 26 27 21 16 13 12 14 20 20 15 23 21 23 38 40 42 41 32 36 41
44 39 40 47 48 45 36 31 32 36 37 36 32 35 30 33 32 32 35 34 37 34 27 26 23 27 23 18 18 13 15 12 19 15 12 19 24 21 37 39 41 37 38 48 56
41 35 40 47 47 42 33 34 36 38 39 35 34 34 34 34 32 33 34 36 40 33 31 23 26 26 22 18 15 13 13 19 22 20 19 19 20 35 39 40 42 42 51 54 54
41 30 39 43 39 39 34 37 39 39 40 36 37 37 36 36 34 35 37 37 40 36 31 28 25 23 22 21 16 11 14 19 17 26 28 24 22 38 41 43 45 52 54 54 52
38 37 43 41 33 34 38 38 39 39 40 37 34 37 38 36 33 36 39 39 39 37 27 26 24 21 21 19 17 11 23 21 25 29 28 21 22 41 44 45 50 52 51 52 49
36 31 36 38 41 37 36 37 37 40 40 41 41 38 38 36 38 37 39 40 40 37 43 35 30 21 21 21 18 14 21 26 23 21 26 25 30 39 43 45 48 50 48 49 49
36 32 39 34 36 37 38 37 36 37 40 41 39 40 39 35 38 39 41 38 37 38 34 27 33 35 35 23 21 16 15 26 20 23 22 28 32 39 42 46 46 48 47 46 47
37 37 37 37 38 36 39 36 37 38 40 38 39 40 40 38 39 37 39 37 35 35 36 37 34 35 34 36 34 36 32 24 21 33 39 37 38 44 49 47 46 46 46 46 47
39 41 40 35 34 35 36 37 38 39 39 41 40 41 39 39 41 42 43 41 40 37 37 35 34 30 30 35 31 31 35 35 36 38 39 33 38 46 46 45 46 46 46 46 46

GFSSW_sfc_dewp_141.txt.gz
Dewpoint
50 51 52 52 52 53 54 55 55 54 54 53 53 53 54 53 53 45 43 46 49 54 55 49 39 37 32 30 34 32 24 15 19 23 24 27 28 32 38 36 56 63 64 66 69
49 49 49 49 49 50 51 52 53 54 54 54 53 52 53 53 44 42 47 52 54 55 49 42 31 28 29 31 32 27 22 19 25 27 24 27 29 29 32 34 43 62 66 67 69
48 49 49 49 48 49 49 50 51 52 53 53 54 52 52 50 40 38 53 53 54 54 51 44 32 25 25 29 30 29 19 23 28 29 28 27 27 28 28 30 40 57 64 66 67
49 48 48 48 48 48 49 49 48 49 49 51 53 53 51 45 26 41 54 50 50 51 52 47 30 25 18 28 30 26 27 26 23 28 27 28 29 28 32 31 46 62 65 66 66
49 49 48 47 47 48 48 47 48 47 49 49 50 51 50 41 37 39 52 47 40 53 50 43 30 22 16 21 28 27 27 27 24 26 28 27 26 30 35 46 53 63 63 65 66
49 49 49 49 48 48 48 48 48 48 48 49 48 49 48 39 40 39 38 38 42 47 50 44 31 21 19 19 24 27 26 27 26 26 25 25 25 25 29 43 53 61 62 62 65
50 48 49 49 49 49 49 49 50 48 47 47 46 44 42 42 42 40 39 41 43 48 48 46 37 23 21 20 23 24 23 23 25 26 23 25 23 24 29 40 49 55 61 60 62
48 49 49 49 49 49 50 50 50 49 49 49 49 45 38 39 42 43 43 40 39 41 42 44 43 29 22 20 20 15 19 16 18 25 24 23 12 23 27 39 42 48 52 58 59
49 49 49 49 50 50 51 51 50 50 49 48 46 42 33 39 39 39 40 38 39 38 40 40 40 32 25 18 14 14 7 12 13 21 22 25 16 21 28 36 40 45 48 50 54
49 50 50 51 50 51 52 51 49 45 43 42 40 38 35 31 35 38 41 39 36 34 36 37 38 29 22 16 5 11 7 10 9 20 20 21 18 24 35 36 37 43 46 46 46
49 50 51 51 51 51 49 43 34 34 40 34 33 31 31 34 34 39 40 38 37 33 34 35 31 25 21 19 10 14 9 10 11 18 17 16 19 27 37 38 38 38 42 45 45
49 50 50 51 51 51 47 38 36 39 34 34 35 36 34 34 32 39 40 38 34 28 32 34 34 27 23 20 14 13 11 10 14 16 18 18 19 20 25 34 35 35 39 43 44
50 50 50 51 50 47 41 39 39 40 34 30 34 34 34 36 34 33 34 36 34 28 28 29 32 32 23 19 14 16 12 13 11 16 24 25 21 21 23 32 37 39 40 43 44
50 50 50 50 46 43 40 40 39 41 29 22 31 33 36 36 34 34 34 35 35 28 27 28 33 32 25 17 14 16 17 12 20 16 16 27 7 25 24 29 34 37 41 41 42
49 49 50 49 45 43 41 41 41 41 15 20 32 39 37 36 36 35 36 35 31 31 28 26 32 31 26 19 15 11 18 21 23 17 25 30 20 21 34 26 29 36 39 42 43
48 48 49 46 46 45 46 44 40 30 16 18 36 36 36 37 37 34 35 36 35 31 27 24 33 31 26 22 15 14 17 20 23 21 12 23 15 18 25 25 27 31 35 38 41
49 50 47 46 43 48 44 40 30 22 28 25 28 31 35 36 36 37 34 33 29 32 25 27 29 30 27 19 16 15 17 13 11 10 11 24 19 14 27 28 29 29 31 35 36
49 47 45 46 47 49 45 35 24 27 28 30 34 34 34 36 35 36 33 31 30 33 21 26 29 29 26 20 13 15 17 8 6 10 11 26 11 15 30 37 38 40 42 43 43
48 44 44 47 47 48 40 29 28 32 34 35 35 34 34 36 36 36 34 29 29 36 20 31 29 29 25 21 15 15 12 17 19 19 11 18 23 26 33 38 40 41 38 35 39
44 41 43 47 49 46 37 32 33 34 35 36 32 35 32 31 30 32 27 28 28 36 34 31 28 29 26 20 15 15 16 16 20 15 8 17 17 14 33 37 41 39 42 46 47
43 35 42 46 48 43 34 34 36 39 40 35 35 33 33 32 31 31 26 28 35 35 37 32 29 27 24 20 14 14 13 19 25 19 18 19 18 36 40 42 43 43 52 53 54
41 32 40 44 40 39 35 38 40 39 41 35 37 37 33 36 32 34 34 37 38 37 33 32 30 26 24 21 19 14 14 20 18 24 28 27 29 39 43 45 44 52 52 53 53
38 37 43 43 34 34 38 37 38 39 39 39 35 38 38 37 34 33 35 38 38 38 30 32 31 23 21 18 20 16 14 19 32 31 25 20 28 42 47 49 51 51 51 50 51
40 34 36 38 40 36 36 37 36 40 40 40 40 39 37 35 38 36 35 36 37 38 43 40 32 27 20 18 19 18 16 17 18 19 24 20 33 42 47 50 49 51 50 52 51
41 35 38 33 35 36 37 37 36 37 39 40 39 40 38 36 38 38 38 38 40 41 40 36 31 30 25 18 16 19 14 17 16 21 12 19 30 42 47 49 49 49 49 48 48
38 38 37 36 36 36 37 37 36 37 39 37 38 39 39 37 39 38 39 38 39 39 38 40 37 33 23 18 14 17 17 16 13 23 30 30 39 45 49 49 48 48 48 47 47
40 41 40 34 35 36 36 37 37 38 38 41 41 41 38 42 43 42 43 43 41 37 37 40 39 35 29 24 23 22 29 21 25 29 30 29 37 47 47 48 48 48 48 47 48

GFSSW_sfc_dewp_144.txt.gz
Dewpoint
50 49 50 50 50 50 51 50 51 53 53 54 54 54 53 53 54 44 40 43 46 54 53 46 41 30 33 24 24 26 17 14 7 9 17 23 28 32 34 33 45 55 56 63 66
49 49 49 49 48 48 49 49 49 50 51 52 53 54 53 52 42 38 45 49 51 52 47 41 31 24 27 23 25 24 19 10 6 10 15 20 24 29 33 34 41 55 63 66 67
49 49 49 49 49 49 49 49 48 48 48 49 50 53 54 49 38 29 53 53 52 53 47 44 37 21 22 23 21 20 13 11 9 18 20 19 24 28 31 32 35 46 60 66 66
49 49 49 49 49 49 49 49 48 48 47 47 49 50 52 47 25 39 53 52 47 44 46 44 38 23 15 22 21 20 17 14 17 22 21 19 20 24 27 31 36 49 60 64 65
49 49 49 49 49 49 49 49 48 48 47 47 48 49 47 43 38 38 55 52 41 42 44 44 35 23 12 16 21 22 18 18 19 20 20 20 21 19 19 29 40 55 61 63 66
49 49 48 49 49 50 51 51 50 49 49 48 47 48 42 39 38 40 37 36 37 40 47 44 35 24 17 11 19 23 18 21 20 17 19 17 19 21 26 37 44 54 57 59 63
50 49 49 49 49 50 51 51 51 50 49 49 48 45 41 33 37 39 38 35 38 43 40 45 37 27 19 15 15 19 19 20 20 18 18 21 19 19 20 38 43 52 54 56 60
49 50 50 50 49 50 51 52 51 51 51 50 50 46 39 36 37 35 36 38 38 38 42 43 44 33 22 16 14 16 18 15 17 19 19 21 14 21 22 34 39 49 51 53 57
49 51 50 50 50 51 52 52 51 51 49 49 47 44 33 38 35 35 34 34 38 37 38 41 43 35 24 15 12 14 12 11 11 17 18 20 13 14 24 33 37 43 44 46 52
51 51 51 51 51 51 51 51 49 47 41 41 41 38 35 28 32 35 39 37 33 34 37 39 38 31 23 16 10 11 8 8 8 14 17 18 14 16 21 25 34 38 40 41 44
51 51 51 51 51 51 49 42 36 36 39 32 31 30 27 31 34 37 39 38 34 31 33 38 34 28 24 20 14 13 11 7 9 15 17 18 16 20 21 21 28 35 36 40 41
50 51 51 51 51 51 47 39 35 37 33 32 31 31 31 32 31 37 37 33 32 24 29 35 33 29 24 20 16 12 13 10 11 15 15 15 17 18 24 24 23 29 35 38 37
50 50 50 50 51 48 42 39 37 39 33 28 29 30 30 31 30 32 35 37 31 21 25 32 32 30 25 20 17 13 14 12 11 13 13 15 14 17 23 28 28 29 35 34 36
49 50 50 50 47 42 41 41 39 40 32 21 28 31 33 31 30 30 31 29 35 21 21 28 31 30 25 19 16 14 12 10 10 11 8 17 5 18 18 22 25 29 30 29 33
48 50 50 49 46 42 42 42 41 41 22 20 30 36 35 32 34 33 30 29 26 27 19 26 31 29 25 20 16 15 13 13 14 13 15 16 9 15 19 17 18 23 26 28 32
49 50 50 46 46 45 45 45 42 33 22 21 31 33 33 34 34 35 31 29 25 29 21 19 27 36 26 20 15 14 16 13 15 12 17 19 9 16 19 20 22 23 25 28 28
49 50 47 45 42 48 44 42 34 28 31 29 31 35 33 36 37 36 30 28 25 29 25 19 26 35 30 19 16 17 21 15 12 12 9 18 12 16 22 21 21 23 24 25 27
49 48 46 44 45 49 45 37 30 32 31 30 33 33 35 37 36 35 35 29 26 28 20 15 25 30 30 19 13 15 18 11 12 10 13 21 13 14 22 21 25 29 33 33 30
48 45 42 45 47 48 41 34 33 34 36 36 33 34 33 36 36 35 35 30 24 30 25 13 23 30 28 20 13 13 14 15 14 12 15 16 16 24 27 31 35 36 39 41 42
43 41 41 44 49 46 38 34 36 35 36 36 33 36 35 29 29 35 33 32 26 25 34 19 25 27 25 21 15 14 15 14 15 16 12 13 15 15 28 29 35 37 40 41 43
43 36 40 44 48 44 36 36 37 39 41 35 36 36 33 34 26 24 24 26 24 27 33 35 33 25 24 23 17 13 10 15 16 18 15 14 13 26 31 37 41 48 49 52 53
39 31 39 42 37 39 37 37 39 39 41 37 36 37 37 36 30 28 22 23 26 31 32 40 35 28 21 23 18 16 14 19 16 21 21 18 25 38 40 42 48 50 52 53 55
35 35 40 40 35 36 36 37 37 39 39 39 36 38 38 37 33 33 35 35 30 34 38 39 35 25 21 22 20 16 14 19 24 26 25 23 26 39 45 47 51 51 52 53 52
34 27 34 36 38 37 37 35 37 39 39 40 40 40 37 36 37 37 37 36 32 38 44 43 33 29 24 24 23 18 13 17 24 21 17 19 32 42 46 49 51 52 52 50 49
32 31 36 34 35 37 36 36 35 37 39 40 39 39 38 35 34 36 36 37 39 42 41 39 31 26 22 22 20 15 11 13 17 17 17 24 27 40 48 49 50 52 51 50 49
33 37 36 36 35 36 36 37 37 38 39 38 37 40 40 39 40 35 38 39 39 38 39 39 33 29 21 20 19 16 12 11 10 10 11 20 36 45 51 50 50 51 48 48 50
40 40 40 34 33 37 37 37 37 39 38 40 40 41 40 42 44 44 45 44 43 42 39 39 35 30 22 17 16 15 13 11 12 14 18 19 33 46 50 48 49 50 48 48 49

GFSSW_sfc_dewp_147.txt.gz
Dewpoint
50 50 50 50 50 49 49 49 49 49 50 50 52 53 54 54 54 44 39 42 43 54 52 41 38 32 24 25 20 17 13 9 7 6 8 14 28 32 33 30 35 46 54 62 63
50 50 50 50 50 50 50 49 49 48 48 49 50 51 52 54 47 40 44 53 53 49 42 37 35 30 18 21 18 16 14 12 11 9 6 7 25 28 32 32 36 50 58 60 63
50 50 50 50 50 50 50 50 49 49 48 48 49 49 50 50 40 36 55 52 52 49 41 40 37 27 17 17 18 16 14 14 11 12 8 6 16 24 29 32 33 46 58 60 62
50 50 50 50 50 50 50 50 50 50 48 47 48 48 50 43 28 45 54 54 52 48 44 39 39 33 19 16 16 13 17 16 12 8 9 11 14 19 25 31 34 38 57 61 61
50 50 49 50 50 50 50 50 51 50 50 49 48 48 44 36 34 39 56 52 48 39 37 37 35 35 23 17 17 15 14 14 12 10 15 18 16 20 24 28 35 43 55 58 61
50 50 50 50 50 51 52 52 52 51 51 50 49 48 41 34 31 32 33 38 35 37 37 39 34 33 25 18 17 18 16 15 12 14 17 18 16 17 20 21 29 43 53 55 59
51 51 51 51 50 51 52 52 52 52 52 51 51 46 41 33 30 34 36 35 34 35 38 40 35 33 28 18 15 18 17 17 15 15 18 18 15 16 18 20 25 41 49 52 57
51 52 52 51 51 51 52 52 52 51 51 52 51 46 41 37 35 32 31 34 34 40 41 42 43 41 28 21 16 13 19 17 16 17 16 16 14 14 18 24 33 38 47 51 54
52 52 52 51 51 51 52 52 52 52 51 50 48 46 37 39 35 32 31 28 29 35 37 39 42 42 30 20 15 14 15 17 15 17 14 15 14 15 16 20 33 37 44 48 52
51 51 51 51 51 51 52 52 50 48 44 41 41 40 36 27 27 30 34 32 28 30 32 38 39 38 29 18 12 12 12 15 16 15 15 14 16 13 19 20 31 36 42 46 48
50 51 51 51 51 51 49 43 40 38 37 34 33 31 24 28 31 30 36 37 30 29 29 35 35 30 28 23 16 13 14 15 16 15 16 16 16 12 18 21 29 35 39 40 43
50 51 51 51 51 51 48 42 38 35 34 33 30 29 30 28 25 30 35 33 30 24 25 32 34 29 27 24 18 14 13 14 13 12 15 17 16 16 20 22 24 31 36 37 39
50 50 51 51 51 49 43 40 38 37 34 29 26 26 26 28 26 33 32 34 28 23 21 28 27 29 25 22 19 16 14 15 11 13 14 17 16 16 19 20 21 27 34 35 39
50 50 51 51 47 41 41 41 39 39 34 24 25 28 29 27 26 26 30 31 29 26 18 20 26 25 28 23 20 18 14 13 11 13 11 17 10 18 18 21 22 21 25 30 36
50 50 50 50 45 42 42 43 41 40 28 19 28 33 31 26 33 32 26 27 22 25 17 15 26 26 30 25 21 17 15 15 13 15 14 11 8 12 17 21 25 24 24 30 35
50 50 50 46 46 46 45 45 42 34 28 26 28 30 30 29 29 35 30 25 25 25 30 16 31 33 28 25 20 18 15 14 15 13 11 14 10 7 12 17 26 27 29 31 28
50 50 48 44 41 45 44 42 34 32 33 31 30 30 30 38 35 34 25 23 21 28 28 17 25 35 27 22 20 18 18 12 11 10 12 17 15 15 19 16 19 23 22 24 25
49 49 48 41 45 48 44 38 32 34 35 33 31 31 34 35 38 36 35 22 21 19 22 16 26 37 31 24 19 19 18 13 14 12 9 17 16 12 23 22 19 20 23 24 25
48 45 42 43 45 47 43 36 35 35 37 36 34 31 35 34 36 36 34 23 19 21 31 11 23 36 32 25 18 16 15 16 16 15 10 13 17 21 22 21 22 24 26 27 28
44 40 41 43 48 46 40 35 37 38 37 36 34 32 32 30 35 34 31 29 21 19 33 16 23 31 32 23 17 18 20 17 16 18 15 16 18 16 21 27 30 33 36 37 38
44 36 39 41 45 37 37 37 38 40 42 35 37 35 32 32 31 32 30 26 29 18 27 32 29 32 29 18 16 14 16 18 19 15 17 17 15 25 28 30 35 37 39 49 50
37 28 39 40 34 36 39 36 41 39 41 37 36 37 38 37 29 22 27 30 28 23 28 39 37 32 28 18 15 16 20 21 19 21 19 20 25 25 35 39 45 46 52 52 52
33 29 39 39 37 38 37 36 37 39 40 39 37 38 39 38 33 30 27 21 23 23 37 39 36 31 26 19 16 16 18 20 22 27 23 24 32 39 47 50 51 51 51 52 53
29 25 29 33 36 38 37 35 36 40 40 40 40 40 39 37 38 35 32 26 27 36 45 42 39 31 27 25 21 17 16 18 24 23 19 23 31 39 48 50 51 52 52 51 52
30 30 36 32 35 38 37 35 36 39 40 40 37 39 39 35 37 36 34 31 34 44 42 41 37 27 25 24 20 15 13 15 23 19 19 27 30 42 49 49 51 49 48 47 47
33 35 36 36 37 34 36 36 36 40 39 37 39 41 41 39 42 34 34 36 37 41 41 46 32 26 24 22 17 15 12 17 17 15 25 26 36 48 50 50 50 48 47 47 47
39 39 40 36 32 36 37 36 37 40 40 40 41 41 40 43 45 45 45 43 42 41 42 43 39 36 32 22 19 16 14 16 15 14 22 28 42 48 49 50 50 48 48 49 48